This is the latest recevied weather packets stored in our database for station/object AB8Y-13. If no packets are shown the sender has not sent any weather packets the latest 10 day(s).
| Time | Temp. | Humidity | Pressure | Rain* | Wind** | Luminosity | Snow |
|---|---|---|---|---|---|---|---|
| 1777329727 | 17.78° C | 53% | 1009 hPa | 0 mm | - | 98 W/m² | - |
| 1777329425 | 17.78° C | 54% | 1009.3 hPa | 0 mm | - | 104 W/m² | - |
| 1777329122 | 17.78° C | 54% | 1009.5 hPa | 0 mm | - | 84 W/m² | - |
| 1777328819 | 17.78° C | 54% | 1009.5 hPa | 0 mm | - | 54 W/m² | - |
| 1777328517 | 17.78° C | 54% | 1010.6 hPa | 0 mm | - | 68 W/m² | - |
| 1777328215 | 17.78° C | 54% | 1011.2 hPa | 0 mm | - | 76 W/m² | - |
| 1777327913 | 17.78° C | 53% | 1011.8 hPa | 0 mm | - | 81 W/m² | - |
| 1777327610 | 17.78° C | 53% | 1012.4 hPa | 0 mm | - | 91 W/m² | - |
| 1777327308 | 18.33° C | 53% | 1012.6 hPa | 0 mm | - | 106 W/m² | - |
| 1777327004 | 18.33° C | 52% | 1013.1 hPa | 0 mm | - | 108 W/m² | - |
| 1777326702 | 18.33° C | 54% | 1013.1 hPa | 0 mm | - | 118 W/m² | - |
| 1777326399 | 18.33° C | 51% | 1013 hPa | 0 mm | - | 135 W/m² | - |
| 1777326097 | 18.33° C | 51% | 1012.8 hPa | 0 mm | - | 156 W/m² | - |
| 1777325794 | 18.33° C | 51% | 1013 hPa | 0 mm | - | 155 W/m² | - |
| 1777325492 | 18.33° C | 51% | 1013 hPa | 0 mm | - | 142 W/m² | - |
| 1777325190 | 18.89° C | 50% | 1013.2 hPa | 0 mm | - | 150 W/m² | - |
| 1777324886 | 18.89° C | 50% | 1013.4 hPa | 0 mm | - | 179 W/m² | - |
| 1777324584 | 18.89° C | 49% | 1013.1 hPa | 0 mm | - | 199 W/m² | - |
| 1777324281 | 19.44° C | 49% | 1013.2 hPa | 0 mm | - | 203 W/m² | - |
| 1777323979 | 19.44° C | 48% | 1013.1 hPa | 0 mm | - | 190 W/m² | - |
| 1777323676 | 19.44° C | 47% | 1013.3 hPa | 0 mm | - | 181 W/m² | - |
| 1777323373 | 19.44° C | 47% | 1013.2 hPa | 0 mm | - | 186 W/m² | - |
| 1777323071 | 19.44° C | 46% | 1013.4 hPa | 0 mm | - | 213 W/m² | - |
| 1777322769 | 19.44° C | 44% | 1013.5 hPa | 0 mm | - | 242 W/m² | - |
| 1777322467 | 19.44° C | 44% | 1013.7 hPa | 0 mm | - | 246 W/m² | - |
* Rain latest hour (hover to see other rain measurements)
** Current wind speed in m/s (hover to see current wind gust speed)